Weather in Sarakhs

Iran     36°32′38″N   61°09′41″E
temp.,
°C
wind,
m/s
gust,
m/s
humid.,
%
clouds,
%
prec.,
mm/h
press.,
hPa
HPBL,
m
18 april, sun
sun1823:00+19n22430 0.1 102011
02:00+18sse23470 0.0 102015
05:00+16sw11510 0.0 102011
08:00+20se22435 0.0 1022114
11:00+25se22304 0.0 10212082
14:00+27e22205 0.0 10182728
17:00+28e3218100 0.0 10162536
20:00+24e4522100 0.0 101659
19 april, mon
mon1923:00+21se452544 0.0 101661
02:00+19se44290 0.0 101535
05:00+18sse46320 0.0 101481
08:00+21sse47307 0.0 1013211
11:00+27sse4418100 0.0 10121211
14:00+30ese121657 0.0 10102035
17:00+30n5615100 0.0 10093185
20:00+25nw141624100 0.0 1012561
20 april, tue
tue2023:00+23nnw592814 0.0 1013181
02:00+20nw483943 0.0 1013177
05:00+19wnw46434 0.0 101485
08:00+20nw35400 0.0 1016228
11:00+26nw56270 0.0 10162010
14:00+28nw68201 0.0 10142677
17:00+29nnw78185 0.0 10122695
20:00+24nnw4523100 0.0 101363
21 april, wed
wed2123:00+22n3326100 0.0 101323
02:00+20nne2231100 0.0 101311
05:00+18ene223797 0.0 101411
08:00+20e2336100 0.0 1016164
11:00+25ene22264 0.0 10161010
14:00+28ene322120 0.0 10142152
17:00+29ne43202 0.0 10132198
20:00+25ne59285 0.0 1015163
22 april, thu
thu2223:00+22ene61133100 0.0 1016367
02:00+19ene223573 0.0 101713
05:00+18ene44365 0.0 101763
08:00+19ene45305 0.0 1019296
11:00+24ne33245 0.0 1020975
14:00+27ne542010 0.0 10181492
17:00+28nne651925 0.0 10171597
20:00+23ne581415 0.0 1018125